Multibeam Report for EX1402L2


Ship Name: Okeanos Explorer
Chief Scientist: McKenna, Lindsay
NOAA/OAR/OER
Source Organization: NOAA Office of Ocean Exploration and Research (OER)
Start Date: 2014-03-19
End Date: 2014-04-04


View ISO Metadata

Visit the full NCEI Bathymetry Viewer


Multibeam Bathymetry

Cruise Details

Project: Gulf of Mexico Mapping and Exploration
Instrument: Kongsberg EM302

Data Quality

Number of Files: 658
Number of Records: 1505122
BATHYMETRY DATA Quantity Percentage
Number of Beams 286059168 100%
Number of Good Beams 272026788 95.09%
Number of Zero Beams 0 0%
Number of Flagged Beams 14032380 4.91%

Navigation Totals

Total Time: 337.8919 hours
Total Track Length: 5200.9738 km
Average Speed: 15.392 km/hr (8.3110 knots)

Cruise Bounds

Northern Extent: 29.50146
Southern Extent: 26.996487
Western Extent: -94.43106
Eastern Extent: -87.63282

Limits

Minimum Sonar Depth 0 Maximum Sonar Depth 11.9584
Minimum Altitude 42.8646 Maximum Altitude 1973.4221
Minimum Depth 37.2257 Maximum Depth 1976.4783

File Information

Full Resolution Bathymetry as collected (raw): 313

Files File Size Description
0001_20140319_224237_EX1402L2_MB.all.mb58.gz 334.53MB Kongsberg multibeam vendor format
0002_20140320_000156_EX1402L2_MB.all.mb58.gz 381.72MB Kongsberg multibeam vendor format
0003_20140320_020053_EX1402L2_MB.all.mb58.gz 3.27MB Kongsberg multibeam vendor format
0004_20140320_020232_EX1402L2_MB.all.mb58.gz 220.07MB Kongsberg multibeam vendor format
0005_20140320_040233_EX1402L2_MB.all.mb58.gz 219.29MB Kongsberg multibeam vendor format
0006_20140320_060232_EX1402L2_MB.all.mb58.gz 22.10MB Kongsberg multibeam vendor format
0007_20140320_061325_EX1402L2_MB.all.mb58.gz 79.54MB Kongsberg multibeam vendor format
0008_20140320_070038_EX1402L2_MB.all.mb58.gz 12.73MB Kongsberg multibeam vendor format
0009_20140320_070824_EX1402L2_MB.all.mb58.gz 156.27MB Kongsberg multibeam vendor format
0010_20140320_083859_EX1402L2_MB.all.mb58.gz 170.4KB Kongsberg multibeam vendor format
0011_20140320_083926_EX1402L2_MB.all.mb58.gz 187.52MB Kongsberg multibeam vendor format
0012_20140320_103926_EX1402L2_MB.all.mb58.gz 98.64MB Kongsberg multibeam vendor format
0013_20140320_115520_EX1402L2_MB.all.mb58.gz 17.27MB Kongsberg multibeam vendor format
0014_20140320_121037_EX1402L2_MB.all.mb58.gz 57.69MB Kongsberg multibeam vendor format
0015_20140320_130840_EX1402L2_MB.all.mb58.gz 19.90MB Kongsberg multibeam vendor format
0016_20140320_132848_EX1402L2_MB.all.mb58.gz 125.61MB Kongsberg multibeam vendor format
0017_20140320_152847_EX1402L2_MB.all.mb58.gz 16.32MB Kongsberg multibeam vendor format
0018_20140320_154542_EX1402L2_MB.all.mb58.gz 14.20MB Kongsberg multibeam vendor format
0019_20140320_160040_EX1402L2_MB.all.mb58.gz 52.06MB Kongsberg multibeam vendor format
0020_20140320_165409_EX1402L2_MB.all.mb58.gz 15.55MB Kongsberg multibeam vendor format
0021_20140320_170947_EX1402L2_MB.all.mb58.gz 55.19MB Kongsberg multibeam vendor format
0022_20140320_180612_EX1402L2_MB.all.mb58.gz 149.37MB Kongsberg multibeam vendor format
0023_20140320_200610_EX1402L2_MB.all.mb58.gz 138.80MB Kongsberg multibeam vendor format
0024_20140320_220612_EX1402L2_MB.all.mb58.gz 20.04MB Kongsberg multibeam vendor format
0025_20140320_223746_EX1402L2_MB.all.mb58.gz 46.26MB Kongsberg multibeam vendor format
0026_20140320_230924_EX1402L2_MB.all.mb58.gz 57.83MB Kongsberg multibeam vendor format
0027_20140321_000002_EX1402L2_MB.all.mb58.gz 124.96MB Kongsberg multibeam vendor format
0028_20140321_020004_EX1402L2_MB.all.mb58.gz 20.79MB Kongsberg multibeam vendor format
0029_20140321_021550_EX1402L2_MB.all.mb58.gz 16.75MB Kongsberg multibeam vendor format
0030_20140321_023223_EX1402L2_MB.all.mb58.gz 120.82MB Kongsberg multibeam vendor format
0031_20140321_043226_EX1402L2_MB.all.mb58.gz 63.57MB Kongsberg multibeam vendor format
0032_20140321_053511_EX1402L2_MB.all.mb58.gz 16.79MB Kongsberg multibeam vendor format
0033_20140321_055120_EX1402L2_MB.all.mb58.gz 101.93MB Kongsberg multibeam vendor format
0034_20140321_073002_EX1402L2_MB.all.mb58.gz 18.59MB Kongsberg multibeam vendor format
0035_20140321_074848_EX1402L2_MB.all.mb58.gz 72.21MB Kongsberg multibeam vendor format
0036_20140321_090153_EX1402L2_MB.all.mb58.gz 13.55MB Kongsberg multibeam vendor format
0037_20140321_091521_EX1402L2_MB.all.mb58.gz 67.45MB Kongsberg multibeam vendor format
0038_20140321_100919_EX1402L2_MB.all.mb58.gz 6.55MB Kongsberg multibeam vendor format
0039_20140321_101536_EX1402L2_MB.all.mb58.gz 120.59MB Kongsberg multibeam vendor format
0040_20140321_121536_EX1402L2_MB.all.mb58.gz 164.27MB Kongsberg multibeam vendor format
0041_20140321_141536_EX1402L2_MB.all.mb58.gz 11.40MB Kongsberg multibeam vendor format
0042_20140321_154032_EX1402L2_MB.all.mb58.gz 24.21MB Kongsberg multibeam vendor format
0043_20140321_160204_EX1402L2_MB.all.mb58.gz 173.10MB Kongsberg multibeam vendor format
0044_20140321_180206_EX1402L2_MB.all.mb58.gz 85.43MB Kongsberg multibeam vendor format
0045_20140321_190842_EX1402L2_MB.all.mb58.gz 39.31MB Kongsberg multibeam vendor format
0046_20140321_194702_EX1402L2_MB.all.mb58.gz 23.76MB Kongsberg multibeam vendor format
0047_20140321_201042_EX1402L2_MB.all.mb58.gz 67.96MB Kongsberg multibeam vendor format
0048_20140321_223032_EX1402L2_MB.all.mb58.gz 106.11MB Kongsberg multibeam vendor format
0049_20140322_000000_EX1402L2_MB.all.mb58.gz 174.78MB Kongsberg multibeam vendor format
0050_20140322_020002_EX1402L2_MB.all.mb58.gz 58.48MB Kongsberg multibeam vendor format
0051_20140322_024035_EX1402L2_MB.all.mb58.gz 25.58MB Kongsberg multibeam vendor format
0052_20140322_025759_EX1402L2_MB.all.mb58.gz 168.63MB Kongsberg multibeam vendor format
0053_20140322_045759_EX1402L2_MB.all.mb58.gz 166.28MB Kongsberg multibeam vendor format
0054_20140322_065802_EX1402L2_MB.all.mb58.gz 5.09MB Kongsberg multibeam vendor format
0055_20140322_070207_EX1402L2_MB.all.mb58.gz 13.58MB Kongsberg multibeam vendor format
0056_20140322_071522_EX1402L2_MB.all.mb58.gz 157.61MB Kongsberg multibeam vendor format
0057_20140322_091523_EX1402L2_MB.all.mb58.gz 155.81MB Kongsberg multibeam vendor format
0058_20140322_111523_EX1402L2_MB.all.mb58.gz 27.70MB Kongsberg multibeam vendor format
0059_20140322_113403_EX1402L2_MB.all.mb58.gz 152.06MB Kongsberg multibeam vendor format
0060_20140322_133404_EX1402L2_MB.all.mb58.gz 166.31MB Kongsberg multibeam vendor format
0061_20140322_153405_EX1402L2_MB.all.mb58.gz 34.48MB Kongsberg multibeam vendor format
0062_20140322_155810_EX1402L2_MB.all.mb58.gz 29.60MB Kongsberg multibeam vendor format
0063_20140322_161839_EX1402L2_MB.all.mb58.gz 175.06MB Kongsberg multibeam vendor format
0064_20140322_181840_EX1402L2_MB.all.mb58.gz 165.99MB Kongsberg multibeam vendor format
0065_20140322_201840_EX1402L2_MB.all.mb58.gz 161.68MB Kongsberg multibeam vendor format
0066_20140322_221838_EX1402L2_MB.all.mb58.gz 135.46MB Kongsberg multibeam vendor format
0067_20140323_000000_EX1402L2_MB.all.mb58.gz 147.53MB Kongsberg multibeam vendor format
0068_20140323_020003_EX1402L2_MB.all.mb58.gz 122.87MB Kongsberg multibeam vendor format
0069_20140323_040001_EX1402L2_MB.all.mb58.gz 118.73MB Kongsberg multibeam vendor format
0070_20140323_060000_EX1402L2_MB.all.mb58.gz 74.27MB Kongsberg multibeam vendor format
0071_20140323_071702_EX1402L2_MB.all.mb58.gz 14.53MB Kongsberg multibeam vendor format
0072_20140323_073219_EX1402L2_MB.all.mb58.gz 115.71MB Kongsberg multibeam vendor format
0073_20140323_093215_EX1402L2_MB.all.mb58.gz 105.41MB Kongsberg multibeam vendor format
0074_20140323_111506_EX1402L2_MB.all.mb58.gz 134.83MB Kongsberg multibeam vendor format
0075_20140323_131350_EX1402L2_MB.all.mb58.gz 146.32MB Kongsberg multibeam vendor format
0076_20140323_151348_EX1402L2_MB.all.mb58.gz 163.63MB Kongsberg multibeam vendor format
0077_20140323_171351_EX1402L2_MB.all.mb58.gz 22.38MB Kongsberg multibeam vendor format
0078_20140323_172857_EX1402L2_MB.all.mb58.gz 27.86MB Kongsberg multibeam vendor format
0079_20140323_174743_EX1402L2_MB.all.mb58.gz 47.39MB Kongsberg multibeam vendor format
0080_20140323_181934_EX1402L2_MB.all.mb58.gz 168.78MB Kongsberg multibeam vendor format
0081_20140323_201936_EX1402L2_MB.all.mb58.gz 145.19MB Kongsberg multibeam vendor format
0082_20140323_221932_EX1402L2_MB.all.mb58.gz 123.78MB Kongsberg multibeam vendor format
0083_20140324_000008_EX1402L2_MB.all.mb58.gz 149.62MB Kongsberg multibeam vendor format
0084_20140324_020009_EX1402L2_MB.all.mb58.gz 120.44MB Kongsberg multibeam vendor format
0085_20140324_040008_EX1402L2_MB.all.mb58.gz 85.26MB Kongsberg multibeam vendor format
0086_20140324_052339_EX1402L2_MB.all.mb58.gz 7.46MB Kongsberg multibeam vendor format
0087_20140324_053052_EX1402L2_MB.all.mb58.gz 133.80MB Kongsberg multibeam vendor format
0088_20140324_073055_EX1402L2_MB.all.mb58.gz 153.58MB Kongsberg multibeam vendor format
0089_20140324_093054_EX1402L2_MB.all.mb58.gz 178.66MB Kongsberg multibeam vendor format
0090_20140324_113053_EX1402L2_MB.all.mb58.gz 158.37MB Kongsberg multibeam vendor format
0091_20140324_133054_EX1402L2_MB.all.mb58.gz 88.87MB Kongsberg multibeam vendor format
0092_20140324_144450_EX1402L2_MB.all.mb58.gz 80.26MB Kongsberg multibeam vendor format
0093_20140324_154054_EX1402L2_MB.all.mb58.gz 180.27MB Kongsberg multibeam vendor format
0094_20140324_174053_EX1402L2_MB.all.mb58.gz 197.23MB Kongsberg multibeam vendor format
0095_20140324_194054_EX1402L2_MB.all.mb58.gz 201.89MB Kongsberg multibeam vendor format
0096_20140324_214054_EX1402L2_MB.all.mb58.gz 108.11MB Kongsberg multibeam vendor format
0097_20140324_225241_EX1402L2_MB.all.mb58.gz 21.11MB Kongsberg multibeam vendor format
0098_20140324_230702_EX1402L2_MB.all.mb58.gz 78.22MB Kongsberg multibeam vendor format
0099_20140325_000004_EX1402L2_MB.all.mb58.gz 198.87MB Kongsberg multibeam vendor format
0100_20140325_020005_EX1402L2_MB.all.mb58.gz 16.12MB Kongsberg multibeam vendor format
0101_20140325_020920_EX1402L2_MB.all.mb58.gz 76.51MB Kongsberg multibeam vendor format
0102_20140325_025555_EX1402L2_MB.all.mb58.gz 182.53MB Kongsberg multibeam vendor format
0103_20140325_045555_EX1402L2_MB.all.mb58.gz 178.43MB Kongsberg multibeam vendor format
0104_20140325_065556_EX1402L2_MB.all.mb58.gz 97.01MB Kongsberg multibeam vendor format
0105_20140325_081511_EX1402L2_MB.all.mb58.gz 97.1KB Kongsberg multibeam vendor format
0107_20140325_081515_EX1402L2_MB.all.mb58.gz 41.25MB Kongsberg multibeam vendor format
0108_20140325_084638_EX1402L2_MB.all.mb58.gz 167.19MB Kongsberg multibeam vendor format
0109_20140325_104635_EX1402L2_MB.all.mb58.gz 192.73MB Kongsberg multibeam vendor format
0110_20140325_124636_EX1402L2_MB.all.mb58.gz 84.13MB Kongsberg multibeam vendor format
0111_20140325_133645_EX1402L2_MB.all.mb58.gz 28.22MB Kongsberg multibeam vendor format
0112_20140325_135302_EX1402L2_MB.all.mb58.gz 52.07MB Kongsberg multibeam vendor format
0113_20140325_142317_EX1402L2_MB.all.mb58.gz 38.57MB Kongsberg multibeam vendor format
0114_20140325_144713_EX1402L2_MB.all.mb58.gz 62.26MB Kongsberg multibeam vendor format
0115_20140325_152350_EX1402L2_MB.all.mb58.gz 188.84MB Kongsberg multibeam vendor format
0116_20140325_172350_EX1402L2_MB.all.mb58.gz 163.17MB Kongsberg multibeam vendor format
0117_20140325_192350_EX1402L2_MB.all.mb58.gz 11.36MB Kongsberg multibeam vendor format
0118_20140325_193152_EX1402L2_MB.all.mb58.gz 38.84MB Kongsberg multibeam vendor format
0119_20140325_195711_EX1402L2_MB.all.mb58.gz 181.42MB Kongsberg multibeam vendor format
0120_20140325_215711_EX1402L2_MB.all.mb58.gz 167.00MB Kongsberg multibeam vendor format
0121_20140325_234637_EX1402L2_MB.all.mb58.gz 24.55MB Kongsberg multibeam vendor format
0122_20140326_000152_EX1402L2_MB.all.mb58.gz 106.55MB Kongsberg multibeam vendor format
0123_20140326_010820_EX1402L2_MB.all.mb58.gz 105.90MB Kongsberg multibeam vendor format
0124_20140326_021855_EX1402L2_MB.all.mb58.gz 12.11MB Kongsberg multibeam vendor format
0125_20140326_022710_EX1402L2_MB.all.mb58.gz 167.12MB Kongsberg multibeam vendor format
0126_20140326_042709_EX1402L2_MB.all.mb58.gz 56.43MB Kongsberg multibeam vendor format
0127_20140326_050410_EX1402L2_MB.all.mb58.gz 15.85MB Kongsberg multibeam vendor format
0128_20140326_051418_EX1402L2_MB.all.mb58.gz 177.15MB Kongsberg multibeam vendor format
0129_20140326_071421_EX1402L2_MB.all.mb58.gz 24.97MB Kongsberg multibeam vendor format
0130_20140326_073106_EX1402L2_MB.all.mb58.gz 14.77MB Kongsberg multibeam vendor format
0131_20140326_074110_EX1402L2_MB.all.mb58.gz 176.03MB Kongsberg multibeam vendor format
0132_20140326_094110_EX1402L2_MB.all.mb58.gz 51.69MB Kongsberg multibeam vendor format
0133_20140326_101651_EX1402L2_MB.all.mb58.gz 181.84MB Kongsberg multibeam vendor format
0134_20140326_121651_EX1402L2_MB.all.mb58.gz 126.56MB Kongsberg multibeam vendor format
0135_20140326_134103_EX1402L2_MB.all.mb58.gz 169.21MB Kongsberg multibeam vendor format
0136_20140326_154101_EX1402L2_MB.all.mb58.gz 32.28MB Kongsberg multibeam vendor format
0137_20140326_161242_EX1402L2_MB.all.mb58.gz 43.44MB Kongsberg multibeam vendor format
0138_20140326_164758_EX1402L2_MB.all.mb58.gz 5.85MB Kongsberg multibeam vendor format
0139_20140326_165153_EX1402L2_MB.all.mb58.gz 3.33MB Kongsberg multibeam vendor format
0140_20140326_165404_EX1402L2_MB.all.mb58.gz 49.10MB Kongsberg multibeam vendor format
0141_20140326_172725_EX1402L2_MB.all.mb58.gz 4.15MB Kongsberg multibeam vendor format
0142_20140326_173016_EX1402L2_MB.all.mb58.gz 65.60MB Kongsberg multibeam vendor format
0143_20140326_181445_EX1402L2_MB.all.mb58.gz 4.56MB Kongsberg multibeam vendor format
0144_20140326_181819_EX1402L2_MB.all.mb58.gz 7.19MB Kongsberg multibeam vendor format
0145_20140326_182304_EX1402L2_MB.all.mb58.gz 177.67MB Kongsberg multibeam vendor format
0146_20140326_202304_EX1402L2_MB.all.mb58.gz 201.52MB Kongsberg multibeam vendor format
0147_20140326_222302_EX1402L2_MB.all.mb58.gz 164.85MB Kongsberg multibeam vendor format
0148_20140327_000002_EX1402L2_MB.all.mb58.gz 154.53MB Kongsberg multibeam vendor format
0149_20140327_012957_EX1402L2_MB.all.mb58.gz 15.69MB Kongsberg multibeam vendor format
0150_20140327_014025_EX1402L2_MB.all.mb58.gz 15.84MB Kongsberg multibeam vendor format
0151_20140327_015106_EX1402L2_MB.all.mb58.gz 27.05MB Kongsberg multibeam vendor format
0152_20140327_020839_EX1402L2_MB.all.mb58.gz 79.77MB Kongsberg multibeam vendor format
0153_20140327_030417_EX1402L2_MB.all.mb58.gz 84.44MB Kongsberg multibeam vendor format
0154_20140327_035231_EX1402L2_MB.all.mb58.gz 10.84MB Kongsberg multibeam vendor format
0155_20140327_040016_EX1402L2_MB.all.mb58.gz 174.78MB Kongsberg multibeam vendor format
0156_20140327_055642_EX1402L2_MB.all.mb58.gz 13.43MB Kongsberg multibeam vendor format
0157_20140327_060422_EX1402L2_MB.all.mb58.gz 154.40MB Kongsberg multibeam vendor format
0158_20140327_073239_EX1402L2_MB.all.mb58.gz 14.90MB Kongsberg multibeam vendor format
0159_20140327_074125_EX1402L2_MB.all.mb58.gz 34.77MB Kongsberg multibeam vendor format
0160_20140327_081815_EX1402L2_MB.all.mb58.gz 44.45MB Kongsberg multibeam vendor format
0161_20140327_090707_EX1402L2_MB.all.mb58.gz 42.01MB Kongsberg multibeam vendor format
0162_20140327_093352_EX1402L2_MB.all.mb58.gz 13.42MB Kongsberg multibeam vendor format
0163_20140327_094225_EX1402L2_MB.all.mb58.gz 144.70MB Kongsberg multibeam vendor format
0164_20140327_110658_EX1402L2_MB.all.mb58.gz 186.12MB Kongsberg multibeam vendor format
0165_20140327_130659_EX1402L2_MB.all.mb58.gz 7.94MB Kongsberg multibeam vendor format
0166_20140327_131325_EX1402L2_MB.all.mb58.gz 9.44MB Kongsberg multibeam vendor format
0167_20140327_131840_EX1402L2_MB.all.mb58.gz 153.81MB Kongsberg multibeam vendor format
0168_20140327_144630_EX1402L2_MB.all.mb58.gz 40.47MB Kongsberg multibeam vendor format
0169_20140327_151120_EX1402L2_MB.all.mb58.gz 5.27MB Kongsberg multibeam vendor format
0170_20140327_151419_EX1402L2_MB.all.mb58.gz 27.42MB Kongsberg multibeam vendor format
0171_20140327_152946_EX1402L2_MB.all.mb58.gz 65.56MB Kongsberg multibeam vendor format
0172_20140327_161236_EX1402L2_MB.all.mb58.gz 191.36MB Kongsberg multibeam vendor format
0173_20140327_181236_EX1402L2_MB.all.mb58.gz 192.25MB Kongsberg multibeam vendor format
0174_20140327_201236_EX1402L2_MB.all.mb58.gz 94.38MB Kongsberg multibeam vendor format
0175_20140327_211046_EX1402L2_MB.all.mb58.gz 156.75MB Kongsberg multibeam vendor format
0176_20140327_224012_EX1402L2_MB.all.mb58.gz 23.27MB Kongsberg multibeam vendor format
0177_20140327_225316_EX1402L2_MB.all.mb58.gz 129.98MB Kongsberg multibeam vendor format
0178_20140328_000455_EX1402L2_MB.all.mb58.gz 42.09MB Kongsberg multibeam vendor format
0179_20140328_003112_EX1402L2_MB.all.mb58.gz 16.70MB Kongsberg multibeam vendor format
0180_20140328_004223_EX1402L2_MB.all.mb58.gz 150.13MB Kongsberg multibeam vendor format
0181_20140328_020929_EX1402L2_MB.all.mb58.gz 17.70MB Kongsberg multibeam vendor format
0182_20140328_021842_EX1402L2_MB.all.mb58.gz 156.07MB Kongsberg multibeam vendor format
0183_20140328_035405_EX1402L2_MB.all.mb58.gz 12.33MB Kongsberg multibeam vendor format
0184_20140328_040206_EX1402L2_MB.all.mb58.gz 191.57MB Kongsberg multibeam vendor format
0185_20140328_060204_EX1402L2_MB.all.mb58.gz 26.59MB Kongsberg multibeam vendor format
0186_20140328_061734_EX1402L2_MB.all.mb58.gz 19.74MB Kongsberg multibeam vendor format
0187_20140328_062846_EX1402L2_MB.all.mb58.gz 188.52MB Kongsberg multibeam vendor format
0188_20140328_082848_EX1402L2_MB.all.mb58.gz 41.85MB Kongsberg multibeam vendor format
0189_20140328_085646_EX1402L2_MB.all.mb58.gz 22.50MB Kongsberg multibeam vendor format
0190_20140328_091213_EX1402L2_MB.all.mb58.gz 185.91MB Kongsberg multibeam vendor format
0191_20140328_111213_EX1402L2_MB.all.mb58.gz 28.11MB Kongsberg multibeam vendor format
0192_20140328_112935_EX1402L2_MB.all.mb58.gz 21.65MB Kongsberg multibeam vendor format
0193_20140328_114148_EX1402L2_MB.all.mb58.gz 193.45MB Kongsberg multibeam vendor format
0194_20140328_134149_EX1402L2_MB.all.mb58.gz 15.58MB Kongsberg multibeam vendor format
0195_20140328_135208_EX1402L2_MB.all.mb58.gz 10.59MB Kongsberg multibeam vendor format
0196_20140328_135920_EX1402L2_MB.all.mb58.gz 9.99MB Kongsberg multibeam vendor format
0197_20140328_140633_EX1402L2_MB.all.mb58.gz 1.43MB Kongsberg multibeam vendor format
0198_20140328_140733_EX1402L2_MB.all.mb58.gz 189.24MB Kongsberg multibeam vendor format
0199_20140328_160732_EX1402L2_MB.all.mb58.gz 36.54MB Kongsberg multibeam vendor format
0200_20140328_162845_EX1402L2_MB.all.mb58.gz 8.82MB Kongsberg multibeam vendor format
0201_20140328_163338_EX1402L2_MB.all.mb58.gz 2.67MB Kongsberg multibeam vendor format
0202_20140328_163503_EX1402L2_MB.all.mb58.gz 125.35MB Kongsberg multibeam vendor format
0203_20140328_174742_EX1402L2_MB.all.mb58.gz 11.53MB Kongsberg multibeam vendor format
0204_20140328_175506_EX1402L2_MB.all.mb58.gz 2.90MB Kongsberg multibeam vendor format
0205_20140328_175657_EX1402L2_MB.all.mb58.gz 113.50MB Kongsberg multibeam vendor format
0206_20140328_190214_EX1402L2_MB.all.mb58.gz 15.21MB Kongsberg multibeam vendor format
0207_20140328_191030_EX1402L2_MB.all.mb58.gz 120.19MB Kongsberg multibeam vendor format
0208_20140328_201705_EX1402L2_MB.all.mb58.gz 113.34MB Kongsberg multibeam vendor format
0209_20140328_213040_EX1402L2_MB.all.mb58.gz 49.32MB Kongsberg multibeam vendor format
0210_20140328_220309_EX1402L2_MB.all.mb58.gz 49.49MB Kongsberg multibeam vendor format
0211_20140328_223507_EX1402L2_MB.all.mb58.gz 13.44MB Kongsberg multibeam vendor format
0212_20140328_224246_EX1402L2_MB.all.mb58.gz 70.14MB Kongsberg multibeam vendor format
0213_20140328_232755_EX1402L2_MB.all.mb58.gz 54.75MB Kongsberg multibeam vendor format
0214_20140329_000401_EX1402L2_MB.all.mb58.gz 21.23MB Kongsberg multibeam vendor format
0215_20140329_001947_EX1402L2_MB.all.mb58.gz 148.53MB Kongsberg multibeam vendor format
0216_20140329_021945_EX1402L2_MB.all.mb58.gz 180.77MB Kongsberg multibeam vendor format
0217_20140329_041947_EX1402L2_MB.all.mb58.gz 172.19MB Kongsberg multibeam vendor format
0218_20140329_061946_EX1402L2_MB.all.mb58.gz 153.61MB Kongsberg multibeam vendor format
0219_20140329_081948_EX1402L2_MB.all.mb58.gz 51.78MB Kongsberg multibeam vendor format
0220_20140329_085554_EX1402L2_MB.all.mb58.gz 26.59MB Kongsberg multibeam vendor format
0221_20140329_091836_EX1402L2_MB.all.mb58.gz 166.85MB Kongsberg multibeam vendor format
0222_20140329_111832_EX1402L2_MB.all.mb58.gz 169.69MB Kongsberg multibeam vendor format
0223_20140329_131834_EX1402L2_MB.all.mb58.gz 91.93MB Kongsberg multibeam vendor format
0224_20140329_153533_EX1402L2_MB.all.mb58.gz 135.64MB Kongsberg multibeam vendor format
0225_20140329_173000_EX1402L2_MB.all.mb58.gz 4.96MB Kongsberg multibeam vendor format
0226_20140329_173439_EX1402L2_MB.all.mb58.gz 6.79MB Kongsberg multibeam vendor format
0227_20140329_174102_EX1402L2_MB.all.mb58.gz 6.47MB Kongsberg multibeam vendor format
0228_20140329_174659_EX1402L2_MB.all.mb58.gz 61.01MB Kongsberg multibeam vendor format
0229_20140329_184420_EX1402L2_MB.all.mb58.gz 139.17MB Kongsberg multibeam vendor format
0230_20140329_204419_EX1402L2_MB.all.mb58.gz 171.03MB Kongsberg multibeam vendor format
0231_20140329_224419_EX1402L2_MB.all.mb58.gz 107.95MB Kongsberg multibeam vendor format
0232_20140329_235657_EX1402L2_MB.all.mb58.gz 4.51MB Kongsberg multibeam vendor format
0233_20140330_000002_EX1402L2_MB.all.mb58.gz 28.48MB Kongsberg multibeam vendor format
0234_20140330_001928_EX1402L2_MB.all.mb58.gz 180.44MB Kongsberg multibeam vendor format
0235_20140330_021926_EX1402L2_MB.all.mb58.gz 179.12MB Kongsberg multibeam vendor format
0236_20140330_041929_EX1402L2_MB.all.mb58.gz 60.67MB Kongsberg multibeam vendor format
0237_20140330_050222_EX1402L2_MB.all.mb58.gz 28.28MB Kongsberg multibeam vendor format
0238_20140330_052357_EX1402L2_MB.all.mb58.gz 178.61MB Kongsberg multibeam vendor format
0239_20140330_072400_EX1402L2_MB.all.mb58.gz 189.44MB Kongsberg multibeam vendor format
0240_20140330_092358_EX1402L2_MB.all.mb58.gz 55.94MB Kongsberg multibeam vendor format
0241_20140330_100120_EX1402L2_MB.all.mb58.gz 25.99MB Kongsberg multibeam vendor format
0242_20140330_102037_EX1402L2_MB.all.mb58.gz 191.34MB Kongsberg multibeam vendor format
0243_20140330_122037_EX1402L2_MB.all.mb58.gz 182.73MB Kongsberg multibeam vendor format
0244_20140330_142038_EX1402L2_MB.all.mb58.gz 96.23MB Kongsberg multibeam vendor format
0245_20140330_152500_EX1402L2_MB.all.mb58.gz 188.73MB Kongsberg multibeam vendor format
0246_20140330_172352_EX1402L2_MB.all.mb58.gz 14.85MB Kongsberg multibeam vendor format
0247_20140330_173349_EX1402L2_MB.all.mb58.gz 4.18MB Kongsberg multibeam vendor format
0248_20140330_173637_EX1402L2_MB.all.mb58.gz 18.17MB Kongsberg multibeam vendor format
0249_20140330_174846_EX1402L2_MB.all.mb58.gz 3.35MB Kongsberg multibeam vendor format
0250_20140330_175100_EX1402L2_MB.all.mb58.gz 187.67MB Kongsberg multibeam vendor format
0251_20140330_195058_EX1402L2_MB.all.mb58.gz 186.59MB Kongsberg multibeam vendor format
0252_20140330_215058_EX1402L2_MB.all.mb58.gz 192.25MB Kongsberg multibeam vendor format
0253_20140330_234647_EX1402L2_MB.all.mb58.gz 15.16MB Kongsberg multibeam vendor format
0254_20140330_235724_EX1402L2_MB.all.mb58.gz 3.97MB Kongsberg multibeam vendor format
0255_20140331_000010_EX1402L2_MB.all.mb58.gz 195.00MB Kongsberg multibeam vendor format
0256_20140331_020010_EX1402L2_MB.all.mb58.gz 188.17MB Kongsberg multibeam vendor format
0257_20140331_040011_EX1402L2_MB.all.mb58.gz 168.98MB Kongsberg multibeam vendor format
0258_20140331_054400_EX1402L2_MB.all.mb58.gz 24.18MB Kongsberg multibeam vendor format
0259_20140331_055952_EX1402L2_MB.all.mb58.gz 194.83MB Kongsberg multibeam vendor format
0260_20140331_075953_EX1402L2_MB.all.mb58.gz 196.47MB Kongsberg multibeam vendor format
0261_20140331_095953_EX1402L2_MB.all.mb58.gz 150.44MB Kongsberg multibeam vendor format
0262_20140331_113636_EX1402L2_MB.all.mb58.gz 14.29MB Kongsberg multibeam vendor format
0263_20140331_114640_EX1402L2_MB.all.mb58.gz 191.70MB Kongsberg multibeam vendor format
0264_20140331_134637_EX1402L2_MB.all.mb58.gz 197.46MB Kongsberg multibeam vendor format
0265_20140331_154638_EX1402L2_MB.all.mb58.gz 169.81MB Kongsberg multibeam vendor format
0266_20140331_172704_EX1402L2_MB.all.mb58.gz 6.62MB Kongsberg multibeam vendor format
0267_20140331_173102_EX1402L2_MB.all.mb58.gz 44.75MB Kongsberg multibeam vendor format
0268_20140331_180016_EX1402L2_MB.all.mb58.gz 4.47MB Kongsberg multibeam vendor format
0269_20140331_180315_EX1402L2_MB.all.mb58.gz 102.21MB Kongsberg multibeam vendor format
0270_20140331_190741_EX1402L2_MB.all.mb58.gz 4.95MB Kongsberg multibeam vendor format
0271_20140331_191101_EX1402L2_MB.all.mb58.gz 6.51MB Kongsberg multibeam vendor format
0272_20140331_191527_EX1402L2_MB.all.mb58.gz 3.54MB Kongsberg multibeam vendor format
0273_20140331_191749_EX1402L2_MB.all.mb58.gz 126.51MB Kongsberg multibeam vendor format
0274_20140331_203914_EX1402L2_MB.all.mb58.gz 19.03MB Kongsberg multibeam vendor format
0275_20140331_205203_EX1402L2_MB.all.mb58.gz 116.31MB Kongsberg multibeam vendor format
0276_20140331_220834_EX1402L2_MB.all.mb58.gz 19.58MB Kongsberg multibeam vendor format
0277_20140331_222212_EX1402L2_MB.all.mb58.gz 117.62MB Kongsberg multibeam vendor format
0278_20140331_234246_EX1402L2_MB.all.mb58.gz 11.90MB Kongsberg multibeam vendor format
0279_20140331_235240_EX1402L2_MB.all.mb58.gz 14.45MB Kongsberg multibeam vendor format
0280_20140401_000651_EX1402L2_MB.all.mb58.gz 92.93MB Kongsberg multibeam vendor format
0281_20140401_011222_EX1402L2_MB.all.mb58.gz 13.73MB Kongsberg multibeam vendor format
0282_20140401_012508_EX1402L2_MB.all.mb58.gz 147.97MB Kongsberg multibeam vendor format
0283_20140401_032509_EX1402L2_MB.all.mb58.gz 111.43MB Kongsberg multibeam vendor format
0284_20140401_043945_EX1402L2_MB.all.mb58.gz 209.76MB Kongsberg multibeam vendor format
0285_20140401_063944_EX1402L2_MB.all.mb58.gz 61.23MB Kongsberg multibeam vendor format
0286_20140401_071450_EX1402L2_MB.all.mb58.gz 15.68MB Kongsberg multibeam vendor format
0287_20140401_072354_EX1402L2_MB.all.mb58.gz 212.37MB Kongsberg multibeam vendor format
0288_20140401_092353_EX1402L2_MB.all.mb58.gz 62.59MB Kongsberg multibeam vendor format
0289_20140401_100038_EX1402L2_MB.all.mb58.gz 210.89MB Kongsberg multibeam vendor format
0290_20140401_120037_EX1402L2_MB.all.mb58.gz 100.70MB Kongsberg multibeam vendor format
0291_20140401_125758_EX1402L2_MB.all.mb58.gz 11.25MB Kongsberg multibeam vendor format
0292_20140401_130425_EX1402L2_MB.all.mb58.gz 217.88MB Kongsberg multibeam vendor format
0293_20140401_150425_EX1402L2_MB.all.mb58.gz 95.59MB Kongsberg multibeam vendor format
0294_20140401_155937_EX1402L2_MB.all.mb58.gz 191.38MB Kongsberg multibeam vendor format
0295_20140401_175936_EX1402L2_MB.all.mb58.gz 204.34MB Kongsberg multibeam vendor format
0296_20140401_195935_EX1402L2_MB.all.mb58.gz 202.79MB Kongsberg multibeam vendor format
0297_20140401_215935_EX1402L2_MB.all.mb58.gz 150.76MB Kongsberg multibeam vendor format
0298_20140401_233006_EX1402L2_MB.all.mb58.gz 42.87MB Kongsberg multibeam vendor format
0299_20140402_000001_EX1402L2_MB.all.mb58.gz 176.26MB Kongsberg multibeam vendor format
0300_20140402_015311_EX1402L2_MB.all.mb58.gz 53.12MB Kongsberg multibeam vendor format
0301_20140402_022702_EX1402L2_MB.all.mb58.gz 213.82MB Kongsberg multibeam vendor format
0302_20140402_042702_EX1402L2_MB.all.mb58.gz 223.64MB Kongsberg multibeam vendor format
0303_20140402_062703_EX1402L2_MB.all.mb58.gz 203.78MB Kongsberg multibeam vendor format
0304_20140402_082704_EX1402L2_MB.all.mb58.gz 225.32MB Kongsberg multibeam vendor format
0305_20140402_102702_EX1402L2_MB.all.mb58.gz 214.38MB Kongsberg multibeam vendor format
0306_20140402_122702_EX1402L2_MB.all.mb58.gz 190.50MB Kongsberg multibeam vendor format
0307_20140402_142703_EX1402L2_MB.all.mb58.gz 209.76MB Kongsberg multibeam vendor format
0308_20140402_162702_EX1402L2_MB.all.mb58.gz 158.50MB Kongsberg multibeam vendor format
0309_20140402_182704_EX1402L2_MB.all.mb58.gz 117.28MB Kongsberg multibeam vendor format
0310_20140402_202702_EX1402L2_MB.all.mb58.gz 117.47MB Kongsberg multibeam vendor format
0311_20140402_222704_EX1402L2_MB.all.mb58.gz 93.24MB Kongsberg multibeam vendor format
0312_20140403_000025_EX1402L2_MB.all.mb58.gz 122.47MB Kongsberg multibeam vendor format
0313_20140403_020025_EX1402L2_MB.all.mb58.gz 222.24MB Kongsberg multibeam vendor format
0314_20140403_040024_EX1402L2_MB.all.mb58.gz 462.29MB Kongsberg multibeam vendor format

Full Resolution Bathymetry (processed): 311

Files File Size Description
EX1402L2_Okeanos_March_2011_2014-078_0001_20140319_224237_EX1402L2_MB.txt.mb163 65.64MB Generic YXZ sounding format
EX1402L2_Okeanos_March_2011_2014-079_0002_20140320_000156_EX1402L2_MB.txt.mb163 63.15MB Generic YXZ sounding format
EX1402L2_Okeanos_March_2011_2014-079_0003_20140320_020053_EX1402L2_MB.txt.mb163 402.4KB Generic YXZ sounding format
EX1402L2_Okeanos_March_2011_2014-079_0004_20140320_020232_EX1402L2_MB.txt.mb163 23.90MB Generic YXZ sounding format
EX1402L2_Okeanos_March_2011_2014-079_0005_20140320_040233_EX1402L2_MB.txt.mb163 23.43MB Generic YXZ sounding format
EX1402L2_Okeanos_March_2011_2014-079_0006_20140320_060232_EX1402L2_MB.txt.mb163 2.57MB Generic YXZ sounding format
EX1402L2_Okeanos_March_2011_2014-079_0007_20140320_061325_EX1402L2_MB.txt.mb163 8.10MB Generic YXZ sounding format
EX1402L2_Okeanos_March_2011_2014-079_0008_20140320_070038_EX1402L2_MB.txt.mb163 1.26MB Generic YXZ sounding format
EX1402L2_Okeanos_March_2011_2014-079_0009_20140320_070824_EX1402L2_MB.txt.mb163 15.85MB Generic YXZ sounding format
EX1402L2_Okeanos_March_2011_2014-079_0010_20140320_083859_EX1402L2_MB.txt.mb163 17.1KB Generic YXZ sounding format
EX1402L2_Okeanos_March_2011_2014-079_0011_20140320_083926_EX1402L2_MB.txt.mb163 16.89MB Generic YXZ sounding format
EX1402L2_Okeanos_March_2011_2014-079_0012_20140320_103926_EX1402L2_MB.txt.mb163 8.67MB Generic YXZ sounding format
EX1402L2_Okeanos_March_2011_2014-079_0013_20140320_115520_EX1402L2_MB.txt.mb163 1.62MB Generic YXZ sounding format
EX1402L2_Okeanos_March_2011_2014-079_0014_20140320_121037_EX1402L2_MB.txt.mb163 5.06MB Generic YXZ sounding format
EX1402L2_Okeanos_March_2011_2014-079_0015_20140320_130840_EX1402L2_MB.txt.mb163 1.76MB Generic YXZ sounding format
EX1402L2_Okeanos_March_2011_2014-079_0016_20140320_132848_EX1402L2_MB.txt.mb163 10.92MB Generic YXZ sounding format
EX1402L2_Okeanos_March_2011_2014-079_0017_20140320_152847_EX1402L2_MB.txt.mb163 1.33MB Generic YXZ sounding format
EX1402L2_Okeanos_March_2011_2014-079_0018_20140320_154542_EX1402L2_MB.txt.mb163 1.17MB Generic YXZ sounding format
EX1402L2_Okeanos_March_2011_2014-079_0019_20140320_160040_EX1402L2_MB.txt.mb163 4.37MB Generic YXZ sounding format
EX1402L2_Okeanos_March_2011_2014-079_0020_20140320_165409_EX1402L2_MB.txt.mb163 1.39MB Generic YXZ sounding format
EX1402L2_Okeanos_March_2011_2014-079_0021_20140320_170947_EX1402L2_MB.txt.mb163 4.82MB Generic YXZ sounding format
EX1402L2_Okeanos_March_2011_2014-079_0022_20140320_180612_EX1402L2_MB.txt.mb163 12.58MB Generic YXZ sounding format
EX1402L2_Okeanos_March_2011_2014-079_0023_20140320_200610_EX1402L2_MB.txt.mb163 12.19MB Generic YXZ sounding format
EX1402L2_Okeanos_March_2011_2014-079_0024_20140320_220612_EX1402L2_MB.txt.mb163 1.85MB Generic YXZ sounding format
EX1402L2_Okeanos_March_2011_2014-079_0026_20140320_230924_EX1402L2_MB.txt.mb163 5.39MB Generic YXZ sounding format
EX1402L2_Okeanos_March_2011_2014-080_0027_20140321_000002_EX1402L2_MB.txt.mb163 11.59MB Generic YXZ sounding format
EX1402L2_Okeanos_March_2011_2014-080_0028_20140321_020004_EX1402L2_MB.txt.mb163 1.81MB Generic YXZ sounding format
EX1402L2_Okeanos_March_2011_2014-080_0029_20140321_021550_EX1402L2_MB.txt.mb163 1.63MB Generic YXZ sounding format
EX1402L2_Okeanos_March_2011_2014-080_0030_20140321_023223_EX1402L2_MB.txt.mb163 11.43MB Generic YXZ sounding format
EX1402L2_Okeanos_March_2011_2014-080_0031_20140321_043226_EX1402L2_MB.txt.mb163 5.91MB Generic YXZ sounding format
EX1402L2_Okeanos_March_2011_2014-080_0032_20140321_053511_EX1402L2_MB.txt.mb163 1.63MB Generic YXZ sounding format
EX1402L2_Okeanos_March_2011_2014-080_0033_20140321_055120_EX1402L2_MB.txt.mb163 8.99MB Generic YXZ sounding format
EX1402L2_Okeanos_March_2011_2014-080_0034_20140321_073002_EX1402L2_MB.txt.mb163 1.68MB Generic YXZ sounding format
EX1402L2_Okeanos_March_2011_2014-080_0035_20140321_074848_EX1402L2_MB.txt.mb163 6.50MB Generic YXZ sounding format
EX1402L2_Okeanos_March_2011_2014-080_0036_20140321_090153_EX1402L2_MB.txt.mb163 1.33MB Generic YXZ sounding format
EX1402L2_Okeanos_March_2011_2014-080_0037_20140321_091521_EX1402L2_MB.txt.mb163 6.16MB Generic YXZ sounding format
EX1402L2_Okeanos_March_2011_2014-080_0038_20140321_100919_EX1402L2_MB.txt.mb163 0.66MB Generic YXZ sounding format
EX1402L2_Okeanos_March_2011_2014-080_0039_20140321_101536_EX1402L2_MB.txt.mb163 11.62MB Generic YXZ sounding format
EX1402L2_Okeanos_March_2011_2014-080_0040_20140321_121536_EX1402L2_MB.txt.mb163 14.21MB Generic YXZ sounding format
EX1402L2_Okeanos_March_2011_2014-080_0041_20140321_141536_EX1402L2_MB.txt.mb163 1.01MB Generic YXZ sounding format
EX1402L2_Okeanos_March_2011_2014-080_0042_20140321_154032_EX1402L2_MB.txt.mb163 2.20MB Generic YXZ sounding format
EX1402L2_Okeanos_March_2011_2014-080_0043_20140321_160204_EX1402L2_MB.txt.mb163 14.57MB Generic YXZ sounding format
EX1402L2_Okeanos_March_2011_2014-080_0044_20140321_180206_EX1402L2_MB.txt.mb163 7.44MB Generic YXZ sounding format
EX1402L2_Okeanos_March_2011_2014-080_0046_20140321_194702_EX1402L2_MB.txt.mb163 2.24MB Generic YXZ sounding format
EX1402L2_Okeanos_March_2011_2014-080_0047_20140321_201042_EX1402L2_MB.txt.mb163 5.94MB Generic YXZ sounding format
EX1402L2_Okeanos_March_2011_2014-080_0048_20140321_223032_EX1402L2_MB.txt.mb163 9.53MB Generic YXZ sounding format
EX1402L2_Okeanos_March_2011_2014-081_0049_20140322_000000_EX1402L2_MB.txt.mb163 15.32MB Generic YXZ sounding format
EX1402L2_Okeanos_March_2011_2014-081_0050_20140322_020002_EX1402L2_MB.txt.mb163 5.06MB Generic YXZ sounding format
EX1402L2_Okeanos_March_2011_2014-081_0051_20140322_024035_EX1402L2_MB.txt.mb163 2.29MB Generic YXZ sounding format
EX1402L2_Okeanos_March_2011_2014-081_0052_20140322_025759_EX1402L2_MB.txt.mb163 14.16MB Generic YXZ sounding format
EX1402L2_Okeanos_March_2011_2014-081_0053_20140322_045759_EX1402L2_MB.txt.mb163 14.31MB Generic YXZ sounding format
EX1402L2_Okeanos_March_2011_2014-081_0054_20140322_065802_EX1402L2_MB.txt.mb163 447.7KB Generic YXZ sounding format
EX1402L2_Okeanos_March_2011_2014-081_0055_20140322_070207_EX1402L2_MB.txt.mb163 1.30MB Generic YXZ sounding format
EX1402L2_Okeanos_March_2011_2014-081_0056_20140322_071522_EX1402L2_MB.txt.mb163 13.93MB Generic YXZ sounding format
EX1402L2_Okeanos_March_2011_2014-081_0057_20140322_091523_EX1402L2_MB.txt.mb163 13.40MB Generic YXZ sounding format
EX1402L2_Okeanos_March_2011_2014-081_0058_20140322_111523_EX1402L2_MB.txt.mb163 2.50MB Generic YXZ sounding format
EX1402L2_Okeanos_March_2011_2014-081_0059_20140322_113403_EX1402L2_MB.txt.mb163 12.78MB Generic YXZ sounding format
EX1402L2_Okeanos_March_2011_2014-081_0060_20140322_133404_EX1402L2_MB.txt.mb163 13.97MB Generic YXZ sounding format
EX1402L2_Okeanos_March_2011_2014-081_0061_20140322_153405_EX1402L2_MB.txt.mb163 2.81MB Generic YXZ sounding format
EX1402L2_Okeanos_March_2011_2014-081_0062_20140322_155810_EX1402L2_MB.txt.mb163 2.55MB Generic YXZ sounding format
EX1402L2_Okeanos_March_2011_2014-081_0063_20140322_161839_EX1402L2_MB.txt.mb163 14.92MB Generic YXZ sounding format
EX1402L2_Okeanos_March_2011_2014-081_0064_20140322_181840_EX1402L2_MB.txt.mb163 14.23MB Generic YXZ sounding format
EX1402L2_Okeanos_March_2011_2014-081_0065_20140322_201840_EX1402L2_MB.txt.mb163 13.87MB Generic YXZ sounding format
EX1402L2_Okeanos_March_2011_2014-081_0066_20140322_221838_EX1402L2_MB.txt.mb163 11.22MB Generic YXZ sounding format
EX1402L2_Okeanos_March_2011_2014-082_0067_20140323_000000_EX1402L2_MB.txt.mb163 12.64MB Generic YXZ sounding format
EX1402L2_Okeanos_March_2011_2014-082_0068_20140323_020003_EX1402L2_MB.txt.mb163 10.86MB Generic YXZ sounding format
EX1402L2_Okeanos_March_2011_2014-082_0069_20140323_040001_EX1402L2_MB.txt.mb163 10.25MB Generic YXZ sounding format
EX1402L2_Okeanos_March_2011_2014-082_0070_20140323_060000_EX1402L2_MB.txt.mb163 6.23MB Generic YXZ sounding format
EX1402L2_Okeanos_March_2011_2014-082_0071_20140323_071702_EX1402L2_MB.txt.mb163 1.17MB Generic YXZ sounding format
EX1402L2_Okeanos_March_2011_2014-082_0072_20140323_073219_EX1402L2_MB.txt.mb163 10.04MB Generic YXZ sounding format
EX1402L2_Okeanos_March_2011_2014-082_0073_20140323_093215_EX1402L2_MB.txt.mb163 9.69MB Generic YXZ sounding format
EX1402L2_Okeanos_March_2011_2014-082_0074_20140323_111506_EX1402L2_MB.txt.mb163 11.74MB Generic YXZ sounding format
EX1402L2_Okeanos_March_2011_2014-082_0075_20140323_131350_EX1402L2_MB.txt.mb163 12.64MB Generic YXZ sounding format
EX1402L2_Okeanos_March_2011_2014-082_0076_20140323_151348_EX1402L2_MB.txt.mb163 14.09MB Generic YXZ sounding format
EX1402L2_Okeanos_March_2011_2014-082_0077_20140323_171351_EX1402L2_MB.txt.mb163 1.91MB Generic YXZ sounding format
EX1402L2_Okeanos_March_2011_2014-082_0078_20140323_172857_EX1402L2_MB.txt.mb163 2.53MB Generic YXZ sounding format
EX1402L2_Okeanos_March_2011_2014-082_0079_20140323_174743_EX1402L2_MB.txt.mb163 4.31MB Generic YXZ sounding format
EX1402L2_Okeanos_March_2011_2014-082_0080_20140323_181934_EX1402L2_MB.txt.mb163 14.25MB Generic YXZ sounding format
EX1402L2_Okeanos_March_2011_2014-082_0081_20140323_201936_EX1402L2_MB.txt.mb163 12.55MB Generic YXZ sounding format
EX1402L2_Okeanos_March_2011_2014-082_0082_20140323_221932_EX1402L2_MB.txt.mb163 11.12MB Generic YXZ sounding format
EX1402L2_Okeanos_March_2011_2014-083_0083_20140324_000008_EX1402L2_MB.txt.mb163 13.08MB Generic YXZ sounding format
EX1402L2_Okeanos_March_2011_2014-083_0084_20140324_020009_EX1402L2_MB.txt.mb163 11.27MB Generic YXZ sounding format
EX1402L2_Okeanos_March_2011_2014-083_0085_20140324_040008_EX1402L2_MB.txt.mb163 8.03MB Generic YXZ sounding format
EX1402L2_Okeanos_March_2011_2014-083_0086_20140324_052339_EX1402L2_MB.txt.mb163 0.75MB Generic YXZ sounding format
EX1402L2_Okeanos_March_2011_2014-083_0087_20140324_053052_EX1402L2_MB.txt.mb163 12.23MB Generic YXZ sounding format
EX1402L2_Okeanos_March_2011_2014-083_0088_20140324_073055_EX1402L2_MB.txt.mb163 12.77MB Generic YXZ sounding format
EX1402L2_Okeanos_March_2011_2014-083_0089_20140324_093054_EX1402L2_MB.txt.mb163 15.05MB Generic YXZ sounding format
EX1402L2_Okeanos_March_2011_2014-083_0090_20140324_113053_EX1402L2_MB.txt.mb163 13.98MB Generic YXZ sounding format
EX1402L2_Okeanos_March_2011_2014-083_0091_20140324_133054_EX1402L2_MB.txt.mb163 7.57MB Generic YXZ sounding format
EX1402L2_Okeanos_March_2011_2014-083_0092_20140324_144450_EX1402L2_MB.txt.mb163 6.71MB Generic YXZ sounding format
EX1402L2_Okeanos_March_2011_2014-083_0093_20140324_154054_EX1402L2_MB.txt.mb163 15.65MB Generic YXZ sounding format
EX1402L2_Okeanos_March_2011_2014-083_0094_20140324_174053_EX1402L2_MB.txt.mb163 17.99MB Generic YXZ sounding format
EX1402L2_Okeanos_March_2011_2014-083_0095_20140324_194054_EX1402L2_MB.txt.mb163 19.94MB Generic YXZ sounding format
EX1402L2_Okeanos_March_2011_2014-083_0096_20140324_214054_EX1402L2_MB.txt.mb163 9.26MB Generic YXZ sounding format
EX1402L2_Okeanos_March_2011_2014-083_0097_20140324_225241_EX1402L2_MB.txt.mb163 1.78MB Generic YXZ sounding format
EX1402L2_Okeanos_March_2011_2014-083_0098_20140324_230702_EX1402L2_MB.txt.mb163 6.82MB Generic YXZ sounding format
EX1402L2_Okeanos_March_2011_2014-084_0099_20140325_000004_EX1402L2_MB.txt.mb163 20.15MB Generic YXZ sounding format
EX1402L2_Okeanos_March_2011_2014-084_0100_20140325_020005_EX1402L2_MB.txt.mb163 1.74MB Generic YXZ sounding format
EX1402L2_Okeanos_March_2011_2014-084_0101_20140325_020920_EX1402L2_MB.txt.mb163 7.64MB Generic YXZ sounding format
EX1402L2_Okeanos_March_2011_2014-084_0102_20140325_025555_EX1402L2_MB.txt.mb163 17.65MB Generic YXZ sounding format
EX1402L2_Okeanos_March_2011_2014-084_0103_20140325_045555_EX1402L2_MB.txt.mb163 16.54MB Generic YXZ sounding format
EX1402L2_Okeanos_March_2011_2014-084_0104_20140325_065556_EX1402L2_MB.txt.mb163 9.15MB Generic YXZ sounding format
EX1402L2_Okeanos_March_2011_2014-084_0105_20140325_081511_EX1402L2_MB.txt.mb163 9.4KB Generic YXZ sounding format
EX1402L2_Okeanos_March_2011_2014-084_0107_20140325_081515_EX1402L2_MB.txt.mb163 3.67MB Generic YXZ sounding format
EX1402L2_Okeanos_March_2011_2014-084_0108_20140325_084638_EX1402L2_MB.txt.mb163 15.06MB Generic YXZ sounding format
EX1402L2_Okeanos_March_2011_2014-084_0109_20140325_104635_EX1402L2_MB.txt.mb163 19.29MB Generic YXZ sounding format
EX1402L2_Okeanos_March_2011_2014-084_0110_20140325_124636_EX1402L2_MB.txt.mb163 8.52MB Generic YXZ sounding format
EX1402L2_Okeanos_March_2011_2014-084_0111_20140325_133645_EX1402L2_MB.txt.mb163 2.96MB Generic YXZ sounding format
EX1402L2_Okeanos_March_2011_2014-084_0112_20140325_135302_EX1402L2_MB.txt.mb163 5.63MB Generic YXZ sounding format
EX1402L2_Okeanos_March_2011_2014-084_0113_20140325_142317_EX1402L2_MB.txt.mb163 3.57MB Generic YXZ sounding format
EX1402L2_Okeanos_March_2011_2014-084_0114_20140325_144713_EX1402L2_MB.txt.mb163 6.09MB Generic YXZ sounding format
EX1402L2_Okeanos_March_2011_2014-084_0115_20140325_152350_EX1402L2_MB.txt.mb163 17.63MB Generic YXZ sounding format
EX1402L2_Okeanos_March_2011_2014-084_0116_20140325_172350_EX1402L2_MB.txt.mb163 14.37MB Generic YXZ sounding format
EX1402L2_Okeanos_March_2011_2014-084_0117_20140325_192350_EX1402L2_MB.txt.mb163 0.93MB Generic YXZ sounding format
EX1402L2_Okeanos_March_2011_2014-084_0118_20140325_193152_EX1402L2_MB.txt.mb163 3.55MB Generic YXZ sounding format
EX1402L2_Okeanos_March_2011_2014-084_0119_20140325_195711_EX1402L2_MB.txt.mb163 15.92MB Generic YXZ sounding format
EX1402L2_Okeanos_March_2011_2014-084_0120_20140325_215711_EX1402L2_MB.txt.mb163 14.15MB Generic YXZ sounding format
EX1402L2_Okeanos_March_2011_2014-084_0121_20140325_234637_EX1402L2_MB.txt.mb163 2.26MB Generic YXZ sounding format
EX1402L2_Okeanos_March_2011_2014-085_0122_20140326_000152_EX1402L2_MB.txt.mb163 9.69MB Generic YXZ sounding format
EX1402L2_Okeanos_March_2011_2014-085_0123_20140326_010820_EX1402L2_MB.txt.mb163 8.86MB Generic YXZ sounding format
EX1402L2_Okeanos_March_2011_2014-085_0124_20140326_021855_EX1402L2_MB.txt.mb163 1.01MB Generic YXZ sounding format
EX1402L2_Okeanos_March_2011_2014-085_0125_20140326_022710_EX1402L2_MB.txt.mb163 14.04MB Generic YXZ sounding format
EX1402L2_Okeanos_March_2011_2014-085_0126_20140326_042709_EX1402L2_MB.txt.mb163 5.29MB Generic YXZ sounding format
EX1402L2_Okeanos_March_2011_2014-085_0127_20140326_050410_EX1402L2_MB.txt.mb163 1.48MB Generic YXZ sounding format
EX1402L2_Okeanos_March_2011_2014-085_0128_20140326_051418_EX1402L2_MB.txt.mb163 15.53MB Generic YXZ sounding format
EX1402L2_Okeanos_March_2011_2014-085_0129_20140326_071421_EX1402L2_MB.txt.mb163 2.10MB Generic YXZ sounding format
EX1402L2_Okeanos_March_2011_2014-085_0130_20140326_073106_EX1402L2_MB.txt.mb163 1.24MB Generic YXZ sounding format
EX1402L2_Okeanos_March_2011_2014-085_0131_20140326_074110_EX1402L2_MB.txt.mb163 14.75MB Generic YXZ sounding format
EX1402L2_Okeanos_March_2011_2014-085_0132_20140326_094110_EX1402L2_MB.txt.mb163 4.42MB Generic YXZ sounding format
EX1402L2_Okeanos_March_2011_2014-085_0133_20140326_101651_EX1402L2_MB.txt.mb163 16.05MB Generic YXZ sounding format
EX1402L2_Okeanos_March_2011_2014-085_0134_20140326_121651_EX1402L2_MB.txt.mb163 11.23MB Generic YXZ sounding format
EX1402L2_Okeanos_March_2011_2014-085_0135_20140326_134103_EX1402L2_MB.txt.mb163 14.73MB Generic YXZ sounding format
EX1402L2_Okeanos_March_2011_2014-085_0136_20140326_154101_EX1402L2_MB.txt.mb163 2.74MB Generic YXZ sounding format
EX1402L2_Okeanos_March_2011_2014-085_0137_20140326_161242_EX1402L2_MB.txt.mb163 3.79MB Generic YXZ sounding format
EX1402L2_Okeanos_March_2011_2014-085_0138_20140326_164758_EX1402L2_MB.txt.mb163 0.53MB Generic YXZ sounding format
EX1402L2_Okeanos_March_2011_2014-085_0139_20140326_165153_EX1402L2_MB.txt.mb163 324.2KB Generic YXZ sounding format
EX1402L2_Okeanos_March_2011_2014-085_0140_20140326_165404_EX1402L2_MB.txt.mb163 4.21MB Generic YXZ sounding format
EX1402L2_Okeanos_March_2011_2014-085_0141_20140326_172725_EX1402L2_MB.txt.mb163 375.6KB Generic YXZ sounding format
EX1402L2_Okeanos_March_2011_2014-085_0142_20140326_173016_EX1402L2_MB.txt.mb163 5.91MB Generic YXZ sounding format
EX1402L2_Okeanos_March_2011_2014-085_0143_20140326_181445_EX1402L2_MB.txt.mb163 339.9KB Generic YXZ sounding format
EX1402L2_Okeanos_March_2011_2014-085_0144_20140326_181819_EX1402L2_MB.txt.mb163 0.61MB Generic YXZ sounding format
EX1402L2_Okeanos_March_2011_2014-085_0145_20140326_182304_EX1402L2_MB.txt.mb163 15.15MB Generic YXZ sounding format
EX1402L2_Okeanos_March_2011_2014-085_0146_20140326_202304_EX1402L2_MB.txt.mb163 19.69MB Generic YXZ sounding format
EX1402L2_Okeanos_March_2011_2014-085_0147_20140326_222302_EX1402L2_MB.txt.mb163 15.77MB Generic YXZ sounding format
EX1402L2_Okeanos_March_2011_2014-086_0148_20140327_000002_EX1402L2_MB.txt.mb163 15.16MB Generic YXZ sounding format
EX1402L2_Okeanos_March_2011_2014-086_0149_20140327_012957_EX1402L2_MB.txt.mb163 1.39MB Generic YXZ sounding format
EX1402L2_Okeanos_March_2011_2014-086_0150_20140327_014025_EX1402L2_MB.txt.mb163 1.56MB Generic YXZ sounding format
EX1402L2_Okeanos_March_2011_2014-086_0151_20140327_015106_EX1402L2_MB.txt.mb163 2.50MB Generic YXZ sounding format
EX1402L2_Okeanos_March_2011_2014-086_0152_20140327_020839_EX1402L2_MB.txt.mb163 8.20MB Generic YXZ sounding format
EX1402L2_Okeanos_March_2011_2014-086_0153_20140327_030417_EX1402L2_MB.txt.mb163 11.38MB Generic YXZ sounding format
EX1402L2_Okeanos_March_2011_2014-086_0154_20140327_035231_EX1402L2_MB.txt.mb163 1.12MB Generic YXZ sounding format
EX1402L2_Okeanos_March_2011_2014-086_0155_20140327_040016_EX1402L2_MB.txt.mb163 19.66MB Generic YXZ sounding format
EX1402L2_Okeanos_March_2011_2014-086_0156_20140327_055642_EX1402L2_MB.txt.mb163 1.72MB Generic YXZ sounding format
EX1402L2_Okeanos_March_2011_2014-086_0157_20140327_060422_EX1402L2_MB.txt.mb163 16.27MB Generic YXZ sounding format
EX1402L2_Okeanos_March_2011_2014-086_0158_20140327_073239_EX1402L2_MB.txt.mb163 1.71MB Generic YXZ sounding format
EX1402L2_Okeanos_March_2011_2014-086_0159_20140327_074125_EX1402L2_MB.txt.mb163 3.46MB Generic YXZ sounding format
EX1402L2_Okeanos_March_2011_2014-086_0160_20140327_081815_EX1402L2_MB.txt.mb163 4.72MB Generic YXZ sounding format
EX1402L2_Okeanos_March_2011_2014-086_0161_20140327_090707_EX1402L2_MB.txt.mb163 4.82MB Generic YXZ sounding format
EX1402L2_Okeanos_March_2011_2014-086_0162_20140327_093352_EX1402L2_MB.txt.mb163 1.54MB Generic YXZ sounding format
EX1402L2_Okeanos_March_2011_2014-086_0163_20140327_094225_EX1402L2_MB.txt.mb163 16.12MB Generic YXZ sounding format
EX1402L2_Okeanos_March_2011_2014-086_0164_20140327_110658_EX1402L2_MB.txt.mb163 21.35MB Generic YXZ sounding format
EX1402L2_Okeanos_March_2011_2014-086_0165_20140327_130659_EX1402L2_MB.txt.mb163 0.70MB Generic YXZ sounding format
EX1402L2_Okeanos_March_2011_2014-086_0166_20140327_131325_EX1402L2_MB.txt.mb163 1.25MB Generic YXZ sounding format
EX1402L2_Okeanos_March_2011_2014-086_0167_20140327_131840_EX1402L2_MB.txt.mb163 15.33MB Generic YXZ sounding format
EX1402L2_Okeanos_March_2011_2014-086_0168_20140327_144630_EX1402L2_MB.txt.mb163 3.99MB Generic YXZ sounding format
EX1402L2_Okeanos_March_2011_2014-086_0169_20140327_151120_EX1402L2_MB.txt.mb163 0.54MB Generic YXZ sounding format
EX1402L2_Okeanos_March_2011_2014-086_0170_20140327_151419_EX1402L2_MB.txt.mb163 2.75MB Generic YXZ sounding format
EX1402L2_Okeanos_March_2011_2014-086_0171_20140327_152946_EX1402L2_MB.txt.mb163 6.04MB Generic YXZ sounding format
EX1402L2_Okeanos_March_2011_2014-086_0172_20140327_161236_EX1402L2_MB.txt.mb163 18.71MB Generic YXZ sounding format
EX1402L2_Okeanos_March_2011_2014-086_0173_20140327_181236_EX1402L2_MB.txt.mb163 20.97MB Generic YXZ sounding format
EX1402L2_Okeanos_March_2011_2014-086_0174_20140327_201236_EX1402L2_MB.txt.mb163 11.06MB Generic YXZ sounding format
EX1402L2_Okeanos_March_2011_2014-086_0175_20140327_211046_EX1402L2_MB.txt.mb163 19.62MB Generic YXZ sounding format
EX1402L2_Okeanos_March_2011_2014-086_0176_20140327_224012_EX1402L2_MB.txt.mb163 3.04MB Generic YXZ sounding format
EX1402L2_Okeanos_March_2011_2014-086_0177_20140327_225316_EX1402L2_MB.txt.mb163 16.78MB Generic YXZ sounding format
EX1402L2_Okeanos_March_2011_2014-087_0178_20140328_000455_EX1402L2_MB.txt.mb163 4.77MB Generic YXZ sounding format
EX1402L2_Okeanos_March_2011_2014-087_0179_20140328_003112_EX1402L2_MB.txt.mb163 1.66MB Generic YXZ sounding format
EX1402L2_Okeanos_March_2011_2014-087_0180_20140328_004223_EX1402L2_MB.txt.mb163 18.48MB Generic YXZ sounding format
EX1402L2_Okeanos_March_2011_2014-087_0181_20140328_020929_EX1402L2_MB.txt.mb163 2.50MB Generic YXZ sounding format
EX1402L2_Okeanos_March_2011_2014-087_0182_20140328_021842_EX1402L2_MB.txt.mb163 18.37MB Generic YXZ sounding format
EX1402L2_Okeanos_March_2011_2014-087_0183_20140328_035405_EX1402L2_MB.txt.mb163 1.28MB Generic YXZ sounding format
EX1402L2_Okeanos_March_2011_2014-087_0184_20140328_040206_EX1402L2_MB.txt.mb163 22.40MB Generic YXZ sounding format
EX1402L2_Okeanos_March_2011_2014-087_0185_20140328_060204_EX1402L2_MB.txt.mb163 3.29MB Generic YXZ sounding format
EX1402L2_Okeanos_March_2011_2014-087_0186_20140328_061734_EX1402L2_MB.txt.mb163 2.42MB Generic YXZ sounding format
EX1402L2_Okeanos_March_2011_2014-087_0187_20140328_062846_EX1402L2_MB.txt.mb163 21.37MB Generic YXZ sounding format
EX1402L2_Okeanos_March_2011_2014-087_0188_20140328_082848_EX1402L2_MB.txt.mb163 4.43MB Generic YXZ sounding format
EX1402L2_Okeanos_March_2011_2014-087_0189_20140328_085646_EX1402L2_MB.txt.mb163 2.08MB Generic YXZ sounding format
EX1402L2_Okeanos_March_2011_2014-087_0190_20140328_091213_EX1402L2_MB.txt.mb163 21.00MB Generic YXZ sounding format
EX1402L2_Okeanos_March_2011_2014-087_0191_20140328_111213_EX1402L2_MB.txt.mb163 3.04MB Generic YXZ sounding format
EX1402L2_Okeanos_March_2011_2014-087_0192_20140328_112935_EX1402L2_MB.txt.mb163 2.39MB Generic YXZ sounding format
EX1402L2_Okeanos_March_2011_2014-087_0193_20140328_114148_EX1402L2_MB.txt.mb163 19.19MB Generic YXZ sounding format
EX1402L2_Okeanos_March_2011_2014-087_0194_20140328_134149_EX1402L2_MB.txt.mb163 1.37MB Generic YXZ sounding format
EX1402L2_Okeanos_March_2011_2014-087_0195_20140328_135208_EX1402L2_MB.txt.mb163 0.92MB Generic YXZ sounding format
EX1402L2_Okeanos_March_2011_2014-087_0196_20140328_135920_EX1402L2_MB.txt.mb163 0.83MB Generic YXZ sounding format
EX1402L2_Okeanos_March_2011_2014-087_0197_20140328_140633_EX1402L2_MB.txt.mb163 120.8KB Generic YXZ sounding format
EX1402L2_Okeanos_March_2011_2014-087_0198_20140328_140733_EX1402L2_MB.txt.mb163 18.42MB Generic YXZ sounding format
EX1402L2_Okeanos_March_2011_2014-087_0199_20140328_160732_EX1402L2_MB.txt.mb163 3.90MB Generic YXZ sounding format
EX1402L2_Okeanos_March_2011_2014-087_0200_20140328_162845_EX1402L2_MB.txt.mb163 0.94MB Generic YXZ sounding format
EX1402L2_Okeanos_March_2011_2014-087_0201_20140328_163338_EX1402L2_MB.txt.mb163 291.8KB Generic YXZ sounding format
EX1402L2_Okeanos_March_2011_2014-087_0202_20140328_163503_EX1402L2_MB.txt.mb163 12.90MB Generic YXZ sounding format
EX1402L2_Okeanos_March_2011_2014-087_0203_20140328_174742_EX1402L2_MB.txt.mb163 1.08MB Generic YXZ sounding format
EX1402L2_Okeanos_March_2011_2014-087_0204_20140328_175506_EX1402L2_MB.txt.mb163 296.5KB Generic YXZ sounding format
EX1402L2_Okeanos_March_2011_2014-087_0205_20140328_175657_EX1402L2_MB.txt.mb163 11.68MB Generic YXZ sounding format
EX1402L2_Okeanos_March_2011_2014-087_0206_20140328_190214_EX1402L2_MB.txt.mb163 1.60MB Generic YXZ sounding format
EX1402L2_Okeanos_March_2011_2014-087_0207_20140328_191030_EX1402L2_MB.txt.mb163 12.51MB Generic YXZ sounding format
EX1402L2_Okeanos_March_2011_2014-087_0208_20140328_201705_EX1402L2_MB.txt.mb163 9.83MB Generic YXZ sounding format
EX1402L2_Okeanos_March_2011_2014-087_0209_20140328_213040_EX1402L2_MB.txt.mb163 4.25MB Generic YXZ sounding format
EX1402L2_Okeanos_March_2011_2014-087_0210_20140328_220309_EX1402L2_MB.txt.mb163 4.31MB Generic YXZ sounding format
EX1402L2_Okeanos_March_2011_2014-087_0211_20140328_223507_EX1402L2_MB.txt.mb163 1.30MB Generic YXZ sounding format
EX1402L2_Okeanos_March_2011_2014-087_0212_20140328_224246_EX1402L2_MB.txt.mb163 6.25MB Generic YXZ sounding format
EX1402L2_Okeanos_March_2011_2014-087_0213_20140328_232755_EX1402L2_MB.txt.mb163 4.57MB Generic YXZ sounding format
EX1402L2_Okeanos_March_2011_2014-088_0214_20140329_000401_EX1402L2_MB.txt.mb163 1.79MB Generic YXZ sounding format
EX1402L2_Okeanos_March_2011_2014-088_0215_20140329_001947_EX1402L2_MB.txt.mb163 12.65MB Generic YXZ sounding format
EX1402L2_Okeanos_March_2011_2014-088_0216_20140329_021945_EX1402L2_MB.txt.mb163 15.46MB Generic YXZ sounding format
EX1402L2_Okeanos_March_2011_2014-088_0217_20140329_041947_EX1402L2_MB.txt.mb163 14.26MB Generic YXZ sounding format
EX1402L2_Okeanos_March_2011_2014-088_0218_20140329_061946_EX1402L2_MB.txt.mb163 13.02MB Generic YXZ sounding format
EX1402L2_Okeanos_March_2011_2014-088_0219_20140329_081948_EX1402L2_MB.txt.mb163 4.05MB Generic YXZ sounding format
EX1402L2_Okeanos_March_2011_2014-088_0220_20140329_085554_EX1402L2_MB.txt.mb163 2.50MB Generic YXZ sounding format
EX1402L2_Okeanos_March_2011_2014-088_0221_20140329_091836_EX1402L2_MB.txt.mb163 13.68MB Generic YXZ sounding format
EX1402L2_Okeanos_March_2011_2014-088_0222_20140329_111832_EX1402L2_MB.txt.mb163 14.32MB Generic YXZ sounding format
EX1402L2_Okeanos_March_2011_2014-088_0223_20140329_131834_EX1402L2_MB.txt.mb163 7.70MB Generic YXZ sounding format
EX1402L2_Okeanos_March_2011_2014-088_0224_20140329_153533_EX1402L2_MB.txt.mb163 12.11MB Generic YXZ sounding format
EX1402L2_Okeanos_March_2011_2014-088_0225_20140329_173000_EX1402L2_MB.txt.mb163 478.4KB Generic YXZ sounding format
EX1402L2_Okeanos_March_2011_2014-088_0226_20140329_173439_EX1402L2_MB.txt.mb163 0.63MB Generic YXZ sounding format
EX1402L2_Okeanos_March_2011_2014-088_0227_20140329_174102_EX1402L2_MB.txt.mb163 0.63MB Generic YXZ sounding format
EX1402L2_Okeanos_March_2011_2014-088_0228_20140329_174659_EX1402L2_MB.txt.mb163 5.71MB Generic YXZ sounding format
EX1402L2_Okeanos_March_2011_2014-088_0229_20140329_184420_EX1402L2_MB.txt.mb163 12.85MB Generic YXZ sounding format
EX1402L2_Okeanos_March_2011_2014-088_0230_20140329_204419_EX1402L2_MB.txt.mb163 14.58MB Generic YXZ sounding format
EX1402L2_Okeanos_March_2011_2014-088_0231_20140329_224419_EX1402L2_MB.txt.mb163 8.79MB Generic YXZ sounding format
EX1402L2_Okeanos_March_2011_2014-089_0232_20140329_235657_EX1402L2_MB.txt.mb163 366.0KB Generic YXZ sounding format
EX1402L2_Okeanos_March_2011_2014-089_0233_20140330_000002_EX1402L2_MB.txt.mb163 2.34MB Generic YXZ sounding format
EX1402L2_Okeanos_March_2011_2014-089_0234_20140330_001928_EX1402L2_MB.txt.mb163 14.66MB Generic YXZ sounding format
EX1402L2_Okeanos_March_2011_2014-089_0235_20140330_021926_EX1402L2_MB.txt.mb163 14.55MB Generic YXZ sounding format
EX1402L2_Okeanos_March_2011_2014-089_0236_20140330_041929_EX1402L2_MB.txt.mb163 4.82MB Generic YXZ sounding format
EX1402L2_Okeanos_March_2011_2014-089_0237_20140330_050222_EX1402L2_MB.txt.mb163 2.43MB Generic YXZ sounding format
EX1402L2_Okeanos_March_2011_2014-089_0238_20140330_052357_EX1402L2_MB.txt.mb163 15.51MB Generic YXZ sounding format
EX1402L2_Okeanos_March_2011_2014-089_0239_20140330_072400_EX1402L2_MB.txt.mb163 16.73MB Generic YXZ sounding format
EX1402L2_Okeanos_March_2011_2014-089_0240_20140330_092358_EX1402L2_MB.txt.mb163 4.74MB Generic YXZ sounding format
EX1402L2_Okeanos_March_2011_2014-089_0241_20140330_100120_EX1402L2_MB.txt.mb163 2.20MB Generic YXZ sounding format
EX1402L2_Okeanos_March_2011_2014-089_0242_20140330_102037_EX1402L2_MB.txt.mb163 16.99MB Generic YXZ sounding format
EX1402L2_Okeanos_March_2011_2014-089_0243_20140330_122037_EX1402L2_MB.txt.mb163 15.70MB Generic YXZ sounding format
EX1402L2_Okeanos_March_2011_2014-089_0244_20140330_142038_EX1402L2_MB.txt.mb163 8.36MB Generic YXZ sounding format
EX1402L2_Okeanos_March_2011_2014-089_0245_20140330_152500_EX1402L2_MB.txt.mb163 16.95MB Generic YXZ sounding format
EX1402L2_Okeanos_March_2011_2014-089_0246_20140330_172352_EX1402L2_MB.txt.mb163 1.29MB Generic YXZ sounding format
EX1402L2_Okeanos_March_2011_2014-089_0247_20140330_173349_EX1402L2_MB.txt.mb163 360.8KB Generic YXZ sounding format
EX1402L2_Okeanos_March_2011_2014-089_0248_20140330_173637_EX1402L2_MB.txt.mb163 1.59MB Generic YXZ sounding format
EX1402L2_Okeanos_March_2011_2014-089_0249_20140330_174846_EX1402L2_MB.txt.mb163 320.9KB Generic YXZ sounding format
EX1402L2_Okeanos_March_2011_2014-089_0250_20140330_175100_EX1402L2_MB.txt.mb163 19.63MB Generic YXZ sounding format
EX1402L2_Okeanos_March_2011_2014-089_0251_20140330_195058_EX1402L2_MB.txt.mb163 19.63MB Generic YXZ sounding format
EX1402L2_Okeanos_March_2011_2014-089_0252_20140330_215058_EX1402L2_MB.txt.mb163 21.60MB Generic YXZ sounding format
EX1402L2_Okeanos_March_2011_2014-089_0253_20140330_234647_EX1402L2_MB.txt.mb163 1.34MB Generic YXZ sounding format
EX1402L2_Okeanos_March_2011_2014-089_0254_20140330_235724_EX1402L2_MB.txt.mb163 357.3KB Generic YXZ sounding format
EX1402L2_Okeanos_March_2011_2014-090_0255_20140331_000010_EX1402L2_MB.txt.mb163 19.55MB Generic YXZ sounding format
EX1402L2_Okeanos_March_2011_2014-090_0256_20140331_020010_EX1402L2_MB.txt.mb163 17.16MB Generic YXZ sounding format
EX1402L2_Okeanos_March_2011_2014-090_0257_20140331_040011_EX1402L2_MB.txt.mb163 17.00MB Generic YXZ sounding format
EX1402L2_Okeanos_March_2011_2014-090_0258_20140331_054400_EX1402L2_MB.txt.mb163 2.36MB Generic YXZ sounding format
EX1402L2_Okeanos_March_2011_2014-090_0259_20140331_055952_EX1402L2_MB.txt.mb163 20.55MB Generic YXZ sounding format
EX1402L2_Okeanos_March_2011_2014-090_0260_20140331_075953_EX1402L2_MB.txt.mb163 20.69MB Generic YXZ sounding format
EX1402L2_Okeanos_March_2011_2014-090_0261_20140331_095953_EX1402L2_MB.txt.mb163 15.25MB Generic YXZ sounding format
EX1402L2_Okeanos_March_2011_2014-090_0262_20140331_113636_EX1402L2_MB.txt.mb163 1.25MB Generic YXZ sounding format
EX1402L2_Okeanos_March_2011_2014-090_0263_20140331_114640_EX1402L2_MB.txt.mb163 20.16MB Generic YXZ sounding format
EX1402L2_Okeanos_March_2011_2014-090_0264_20140331_134637_EX1402L2_MB.txt.mb163 21.83MB Generic YXZ sounding format
EX1402L2_Okeanos_March_2011_2014-090_0265_20140331_154638_EX1402L2_MB.txt.mb163 18.23MB Generic YXZ sounding format
EX1402L2_Okeanos_March_2011_2014-090_0266_20140331_172704_EX1402L2_MB.txt.mb163 0.62MB Generic YXZ sounding format
EX1402L2_Okeanos_March_2011_2014-090_0267_20140331_173102_EX1402L2_MB.txt.mb163 3.97MB Generic YXZ sounding format
EX1402L2_Okeanos_March_2011_2014-090_0268_20140331_180016_EX1402L2_MB.txt.mb163 422.6KB Generic YXZ sounding format
EX1402L2_Okeanos_March_2011_2014-090_0269_20140331_180315_EX1402L2_MB.txt.mb163 10.02MB Generic YXZ sounding format
EX1402L2_Okeanos_March_2011_2014-090_0270_20140331_190741_EX1402L2_MB.txt.mb163 465.1KB Generic YXZ sounding format
EX1402L2_Okeanos_March_2011_2014-090_0271_20140331_191101_EX1402L2_MB.txt.mb163 0.63MB Generic YXZ sounding format
EX1402L2_Okeanos_March_2011_2014-090_0272_20140331_191527_EX1402L2_MB.txt.mb163 335.1KB Generic YXZ sounding format
EX1402L2_Okeanos_March_2011_2014-090_0273_20140331_191749_EX1402L2_MB.txt.mb163 12.94MB Generic YXZ sounding format
EX1402L2_Okeanos_March_2011_2014-090_0274_20140331_203914_EX1402L2_MB.txt.mb163 1.71MB Generic YXZ sounding format
EX1402L2_Okeanos_March_2011_2014-090_0275_20140331_205203_EX1402L2_MB.txt.mb163 10.65MB Generic YXZ sounding format
EX1402L2_Okeanos_March_2011_2014-090_0276_20140331_220834_EX1402L2_MB.txt.mb163 1.69MB Generic YXZ sounding format
EX1402L2_Okeanos_March_2011_2014-090_0277_20140331_222212_EX1402L2_MB.txt.mb163 10.77MB Generic YXZ sounding format
EX1402L2_Okeanos_March_2011_2014-090_0278_20140331_234246_EX1402L2_MB.txt.mb163 1.11MB Generic YXZ sounding format
EX1402L2_Okeanos_March_2011_2014-090_0279_20140331_235240_EX1402L2_MB.txt.mb163 1.37MB Generic YXZ sounding format
EX1402L2_Okeanos_March_2011_2014-091_0280_20140401_000651_EX1402L2_MB.txt.mb163 8.41MB Generic YXZ sounding format
EX1402L2_Okeanos_March_2011_2014-091_0281_20140401_011222_EX1402L2_MB.txt.mb163 1.39MB Generic YXZ sounding format
EX1402L2_Okeanos_March_2011_2014-091_0282_20140401_012508_EX1402L2_MB.txt.mb163 13.81MB Generic YXZ sounding format
EX1402L2_Okeanos_March_2011_2014-091_0283_20140401_032509_EX1402L2_MB.txt.mb163 10.81MB Generic YXZ sounding format
EX1402L2_Okeanos_March_2011_2014-091_0284_20140401_043945_EX1402L2_MB.txt.mb163 23.32MB Generic YXZ sounding format
EX1402L2_Okeanos_March_2011_2014-091_0285_20140401_063944_EX1402L2_MB.txt.mb163 6.58MB Generic YXZ sounding format
EX1402L2_Okeanos_March_2011_2014-091_0286_20140401_071450_EX1402L2_MB.txt.mb163 1.58MB Generic YXZ sounding format
EX1402L2_Okeanos_March_2011_2014-091_0287_20140401_072354_EX1402L2_MB.txt.mb163 23.82MB Generic YXZ sounding format
EX1402L2_Okeanos_March_2011_2014-091_0288_20140401_092353_EX1402L2_MB.txt.mb163 7.00MB Generic YXZ sounding format
EX1402L2_Okeanos_March_2011_2014-091_0289_20140401_100038_EX1402L2_MB.txt.mb163 24.64MB Generic YXZ sounding format
EX1402L2_Okeanos_March_2011_2014-091_0290_20140401_120037_EX1402L2_MB.txt.mb163 11.23MB Generic YXZ sounding format
EX1402L2_Okeanos_March_2011_2014-091_0291_20140401_125758_EX1402L2_MB.txt.mb163 1.16MB Generic YXZ sounding format
EX1402L2_Okeanos_March_2011_2014-091_0292_20140401_130425_EX1402L2_MB.txt.mb163 25.60MB Generic YXZ sounding format
EX1402L2_Okeanos_March_2011_2014-091_0293_20140401_150425_EX1402L2_MB.txt.mb163 10.68MB Generic YXZ sounding format
EX1402L2_Okeanos_March_2011_2014-091_0294_20140401_155937_EX1402L2_MB.txt.mb163 19.89MB Generic YXZ sounding format
EX1402L2_Okeanos_March_2011_2014-091_0295_20140401_175936_EX1402L2_MB.txt.mb163 22.14MB Generic YXZ sounding format
EX1402L2_Okeanos_March_2011_2014-091_0296_20140401_195935_EX1402L2_MB.txt.mb163 21.96MB Generic YXZ sounding format
EX1402L2_Okeanos_March_2011_2014-091_0297_20140401_215935_EX1402L2_MB.txt.mb163 16.45MB Generic YXZ sounding format
EX1402L2_Okeanos_March_2011_2014-091_0298_20140401_233006_EX1402L2_MB.txt.mb163 3.73MB Generic YXZ sounding format
EX1402L2_Okeanos_March_2011_2014-092_0299_20140402_000001_EX1402L2_MB.txt.mb163 17.15MB Generic YXZ sounding format
EX1402L2_Okeanos_March_2011_2014-092_0300_20140402_015311_EX1402L2_MB.txt.mb163 5.46MB Generic YXZ sounding format
EX1402L2_Okeanos_March_2011_2014-092_0301_20140402_022702_EX1402L2_MB.txt.mb163 25.10MB Generic YXZ sounding format
EX1402L2_Okeanos_March_2011_2014-092_0302_20140402_042702_EX1402L2_MB.txt.mb163 27.91MB Generic YXZ sounding format
EX1402L2_Okeanos_March_2011_2014-092_0303_20140402_062703_EX1402L2_MB.txt.mb163 22.19MB Generic YXZ sounding format
EX1402L2_Okeanos_March_2011_2014-092_0304_20140402_082704_EX1402L2_MB.txt.mb163 29.74MB Generic YXZ sounding format
EX1402L2_Okeanos_March_2011_2014-092_0305_20140402_102702_EX1402L2_MB.txt.mb163 26.52MB Generic YXZ sounding format
EX1402L2_Okeanos_March_2011_2014-092_0306_20140402_122702_EX1402L2_MB.txt.mb163 18.43MB Generic YXZ sounding format
EX1402L2_Okeanos_March_2011_2014-092_0307_20140402_142703_EX1402L2_MB.txt.mb163 21.70MB Generic YXZ sounding format
EX1402L2_Okeanos_March_2011_2014-092_0308_20140402_162702_EX1402L2_MB.txt.mb163 13.85MB Generic YXZ sounding format
EX1402L2_Okeanos_March_2011_2014-092_0309_20140402_182704_EX1402L2_MB.txt.mb163 10.47MB Generic YXZ sounding format
EX1402L2_Okeanos_March_2011_2014-092_0310_20140402_202702_EX1402L2_MB.txt.mb163 10.58MB Generic YXZ sounding format
EX1402L2_Okeanos_March_2011_2014-092_0311_20140402_222704_EX1402L2_MB.txt.mb163 8.55MB Generic YXZ sounding format
EX1402L2_Okeanos_March_2011_2014-093_0312_20140403_000025_EX1402L2_MB.txt.mb163 11.29MB Generic YXZ sounding format
EX1402L2_Okeanos_March_2011_2014-093_0313_20140403_020025_EX1402L2_MB.txt.mb163 26.74MB Generic YXZ sounding format
EX1402L2_Okeanos_March_2011_2014-093_0314_20140403_040024_EX1402L2_MB.txt.mb163 104.28MB Generic YXZ sounding format

Products: 24

Files File Size Description
EX1402L2_MB_FNL_01_50m_WGS84.asc.gz 0.63MB ESRI Arc ASCII
EX1402L2_MB_FNL_01_50m_WGS84.kmz.gz 0.71MB Compressed Keyhole Markup Language file
EX1402L2_MB_FNL_01_50m_WGS84.sd.gz 1.00MB Fledermaus surface
EX1402L2_MB_FNL_01_50m_WGS84.tif.gz 0.71MB GeoTIFF survey image
EX1402L2_MB_FNL_01_50m_WGS84.txt.gz 2.58MB ASCII text product
EX1402L2_MB_FNL_01_50m_WGS84.xyz.gz 1.17MB xyz grid file provided by the originator
EX1402L2_MB_FNL_02_30m_WGS84.asc.gz 11.05MB ESRI Arc ASCII
EX1402L2_MB_FNL_02_30m_WGS84.kmz.gz 12.24MB Compressed Keyhole Markup Language file
EX1402L2_MB_FNL_02_30m_WGS84.sd.gz 17.50MB Fledermaus surface
EX1402L2_MB_FNL_02_30m_WGS84.tif.gz 12.21MB GeoTIFF survey image
EX1402L2_MB_FNL_02_30m_WGS84.txt.gz 140.18MB ASCII text product
EX1402L2_MB_FNL_02_30m_WGS84.xyz.gz 23.82MB xyz grid file provided by the originator
EX1402L2_MB_FNL_02_50m_WGS84.asc.gz 11.21MB ESRI Arc ASCII
EX1402L2_MB_FNL_02_50m_WGS84.kmz.gz 12.30MB Compressed Keyhole Markup Language file
EX1402L2_MB_FNL_02_50m_WGS84.sd.gz 17.63MB Fledermaus surface
EX1402L2_MB_FNL_02_50m_WGS84.tif.gz 12.27MB GeoTIFF survey image
EX1402L2_MB_FNL_02_50m_WGS84.txt.gz 51.80MB ASCII text product
EX1402L2_MB_FNL_02_50m_WGS84.xyz.gz 23.87MB xyz grid file provided by the originator
EX1402L2_MB_FNL_03_50m_WGS84.asc.gz 2.02MB ESRI Arc ASCII
EX1402L2_MB_FNL_03_50m_WGS84.kmz.gz 1.94MB Compressed Keyhole Markup Language file
EX1402L2_MB_FNL_03_50m_WGS84.sd.gz 2.93MB Fledermaus surface
EX1402L2_MB_FNL_03_50m_WGS84.tif.gz 1.94MB GeoTIFF survey image
EX1402L2_MB_FNL_03_50m_WGS84.txt.gz 7.80MB ASCII text product
EX1402L2_MB_FNL_03_50m_WGS84.xyz.gz 3.48MB xyz grid file provided by the originator

Metadata Files: 5

Files File Size Description
EX1402L2_Multibeam.xml NCEI created ISO metadata
EX1402L2_Multibeam_COLLECTION_UNRESOLVED.xml 21.4KB XML metadata file
EX1402L2_Profile_COLLECTION_UNRESOLVED.xml 15.6KB XML metadata file
v1_file_metadata.tar.gz 89.6KB File level metadata
v2_file_metadata.tar.gz 101.7KB File level metadata

Ancillary Files: 3

Files File Size Description
asvp.tar.gz 463.9KB Sound Speed Profiles (SSP or SVP)
support.tar.gz 315.8KB Supporting data
xbt.tar.gz 2.15MB Expendable Bathythermograph (XBT) data

Water Column Sonar Data

Water Column Sonar Data Available: WCSD Map Viewer